{"data":{"norad_id":65907,"intl_designator":"2025-224AB","name":"STARLINK-35347","alt_names":[],"object_type":"PAYLOAD","status":"ACTIVE","operator":null,"country":"US","launch_date":"2025-10-07","launch_site_code":"AFETR","launch_vehicle":null,"mission":null,"orbit_class":"UNKNOWN","rcs_meters":null,"size_class":null,"mass_kg":null,"dimensions":null,"purposes":["comms"],"wikipedia_slug":null,"has_3d_model":false,"image_url":null,"decayed_at":null,"tle_current":{"epoch":"2026-05-25T01:42:40.701888Z","epoch_age_seconds":64942,"freshness":"FRESH","line1":"1 65907U 25224AB  26145.07130442  .00014450  00000+0  43803-3 0  9995","line2":"2 65907  53.1599  15.4929 0000996  79.2567 280.8548 15.34395790 36562","mean_motion":15.3439579,"eccentricity":9.96e-5,"inclination_deg":53.1599,"raan_deg":15.4929,"arg_perigee_deg":79.2567,"mean_anomaly_deg":280.8548,"bstar":0.00043803,"rev_number":3656,"period_min":93.848015576216,"perigee_km":462.03440430871,"apogee_km":463.39710217716,"semimajor_km":6840.8527532429,"source":"CELESTRAK","updated_at":"2026-05-25T13:38:20.984841Z"}}}